This is the latest recevied weather packets stored in our database for station/object 9M4RLD-3. If no packets are shown the sender has not sent any weather packets the latest 10 day(s).
| Time | Temp. | Humidity | Pressure | Rain* | Wind** | Luminosity | Snow |
|---|---|---|---|---|---|---|---|
| 1777458633 | 25.56° C | 100% | 1031.9 hPa | - | - | - | - |
| 1777457433 | 26.11° C | 100% | 1031.7 hPa | - | - | - | - |
| 1777456234 | 26.67° C | 100% | 1031.6 hPa | - | - | - | - |
| 1777455033 | 27.22° C | 100% | 1031.2 hPa | - | - | - | - |
| 1777453833 | 28.33° C | 100% | 1031.5 hPa | - | - | - | - |
| 1777452633 | 28.33° C | 100% | 1031.4 hPa | - | - | - | - |
| 1777451433 | 28.33° C | 100% | 1031 hPa | - | - | - | - |
| 1777450233 | 28.89° C | 100% | 1031.3 hPa | - | - | - | - |
| 1777449033 | 28.89° C | 100% | 1031.3 hPa | - | - | - | - |
| 1777447833 | 29.44° C | 100% | 1032 hPa | - | - | - | - |
| 1777446633 | 28.89° C | 100% | 1032.3 hPa | - | - | - | - |
| 1777445433 | 28.89° C | 100% | 1032.3 hPa | - | - | - | - |
| 1777444233 | 29.44° C | 100% | 1032.6 hPa | - | - | - | - |
| 1777443033 | 29.44° C | 100% | 1033.1 hPa | - | - | - | - |
| 1777441833 | 30° C | 100% | 1033.3 hPa | - | - | - | - |
| 1777440633 | 31.11° C | 100% | 1033.6 hPa | - | - | - | - |
| 1777439433 | 31.11° C | 100% | 1033.8 hPa | - | - | - | - |
| 1777438233 | 31.67° C | 100% | 1034.2 hPa | - | - | - | - |
| 1777437033 | 31.67° C | 100% | 1034.3 hPa | - | - | - | - |
| 1777435832 | 30.56° C | 100% | 1034.4 hPa | - | - | - | - |
| 1777434632 | 30° C | 100% | 1034.6 hPa | - | - | - | - |
| 1777433432 | 30° C | 100% | 1034.5 hPa | - | - | - | - |
| 1777432232 | 28.33° C | 100% | 1034.4 hPa | - | - | - | - |
| 1777431189 | 27.78° C | 100% | 1034.6 hPa | - | - | - | - |
| 1777431121 | 27.78° C | 100% | 1034.6 hPa | - | - | - | - |
* Rain since midnight (hover to see other rain measurements)
** Current wind speed in m/s (hover to see current wind gust speed)